Location: Laguna de la Cañada del Gallo
(40.3974°N, 5.2096°W)
Time: 12:01:50
(UTC+00:00)

Cosmos 1241 Rocket - Pass Details

Date: 18 April 2024
Orbit: 939 x 1007 km, 65.8° (Epoch: 27 May)

Event Time Altitude Azimuth Distance (km) Brightness Sun altitude
Rises 20:42:11 0° 328° (NNW) 3,636 8.7 -17.9°
Reaches altitude 10° 20:44:43 10° 328° (NNW) 2,695 7.8 -18.3°
Maximum altitude 20:51:02 84° 241° (WSW) 980 4.5 -19.3°
Enters shadow 20:54:29 29° 156° (SSE) 1,695 5.3 -19.9°
